TimePDT,TemperatureF,Dew PointF,Humidity,Sea Level PressureIn,VisibilityMPH,Wind Direction,Wind SpeedMPH,Gust SpeedMPH,PrecipitationIn,Events,Conditions,WindDirDegrees,DateUTC
12:53 AM,48.9,46.0,90,30.22,10.0,WNW,4.6,-,N/A,,Clear,300,2012-10-13 07:53:00
1:53 AM,48.0,45.0,89,30.25,10.0,Calm,Calm,-,N/A,,Clear,0,2012-10-13 08:53:00
2:53 AM,50.0,46.9,89,30.25,10.0,Calm,Calm,-,N/A,,Clear,0,2012-10-13 09:53:00
3:53 AM,46.9,45.0,93,30.26,10.0,NW,4.6,-,N/A,,Clear,310,2012-10-13 10:53:00
4:53 AM,48.0,46.0,93,30.26,7.0,Calm,Calm,-,N/A,,Clear,0,2012-10-13 11:53:00
5:53 AM,48.0,45.0,89,30.26,7.0,WNW,3.5,-,N/A,,Clear,290,2012-10-13 12:53:00
6:53 AM,46.9,45.0,93,30.27,7.0,NW,5.8,-,N/A,,Clear,310,2012-10-13 13:53:00
7:53 AM,48.9,46.9,93,30.27,8.0,NW,4.6,-,N/A,,Clear,310,2012-10-13 14:53:00
8:53 AM,55.0,50.0,83,30.29,9.0,NNW,6.9,-,N/A,,Clear,340,2012-10-13 15:53:00
9:53 AM,62.1,50.0,65,30.30,10.0,NNW,10.4,-,N/A,,Clear,340,2012-10-13 16:53:00
10:53 AM,66.0,50.0,56,30.29,10.0,Variable,6.9,-,N/A,,Clear,0,2012-10-13 17:53:00
11:53 AM,69.1,50.0,51,30.27,10.0,Variable,4.6,-,N/A,,Clear,0,2012-10-13 18:53:00
12:53 PM,69.8,48.2,46,30.25,10.0,Variable,3.5,-,N/A,,Clear,0,2012-10-13 19:53:00
1:53 PM,73.0,48.9,42,30.20,10.0,Calm,Calm,-,N/A,,Clear,0,2012-10-13 20:53:00
2:53 PM,73.9,48.9,41,30.18,10.0,West,3.5,-,N/A,,Clear,260,2012-10-13 21:53:00
3:53 PM,75.9,48.9,38,30.17,10.0,WSW,4.6,-,N/A,,Clear,240,2012-10-13 22:53:00
5:53 PM,73.9,50.0,43,30.15,10.0,East,3.5,-,N/A,,Clear,80,2012-10-14 00:53:00
6:53 PM,71.6,50.0,46,30.15,10.0,ESE,3.5,-,N/A,,Clear,120,2012-10-14 01:53:00
7:53 PM,66.0,51.1,59,30.16,10.0,SSW,6.9,-,N/A,,Clear,200,2012-10-14 02:53:00
8:53 PM,64.4,51.8,64,30.16,10.0,SSW,5.8,-,N/A,,Clear,210,2012-10-14 03:53:00
9:53 PM,62.6,53.6,72,30.15,10.0,SSW,5.8,-,N/A,,Clear,210,2012-10-14 04:53:00
10:53 PM,60.1,53.1,78,30.14,10.0,South,4.6,-,N/A,,Clear,190,2012-10-14 05:53:00
11:53 PM,61.0,55.0,81,30.14,10.0,SSE,5.8,-,N/A,,Clear,150,2012-10-14 06:53:00